EHI
0 0 0 0 0 0 0 0 0 0 0 0 0 0 0 0 0 0 0 0 0 0 0 0 0 0 0 0 0 0 0 0 0 0 0 0 0 0
0 0 0 0 0 0 0 0 0 0 0 0 0 0 0 0 0 0 0 0 0 0 0 0 0 0 0 0 0 0 0 0 0 0 0 0 0 0
0 0 0 0 0 0 0 0 0 0 0 0 0 0 0 0 0 0 0 0 0 0 0 0 0 0 0 0 0 0 0 0 0 0 0 0 0 0
0 0 0 0 0 0 0 0 0 0 0 0 0 0 0 0 0 0 0 0 0 0 0 0 0 0 0 0 0 0 0 0 0 0 0 0 0 0
0 0 0 0 0 0 0 0 0 0 0 0 0 0 0 0 0 0 0 0 0 0 0 0 0 0 0 0 0 0 0 0 0 0 0 0 0 0
0 0 0 0 0 0 0 0 0 0 0 0 0 0 0 0 0 0 0 0 0 0 0 0 0 0 0 0 0 0 0 0 0 0 0 0 0 0
0 0 0 0 0 0 0 0 0 0 0 0 0 0 0 0 0 0 0 0 0 0 0 0 0 0 0 0 0 0 0 0 0 0 0 0 0 0
0 0 0 0 0 0 0 0 0 0 0 0 0 0 0 0 0 0 0 0 0 0 0 0 0 0 0 0 0 0 0 0 0 0 0 0 0 0
0 0 0 0 0 0 0 0 0 0 0 0 0 0 0 0 0 0 0 0 0 0 0 0 0 0 0 0 0 0 0 0 0 0 0 0 0 0
0 0 0 0 0 0 0 0 0 0 0 0 0 0 0 0 0 0 0 0 0 0 0 0 0 0 0 0 0 0 0 0 0 0 0 0 0 0
0 0 0 0 0 0 0 0 0 0 0 0 0 0 0 0 0 0 0 0 0 0 0 0 0 0 0 0 0 0 0 0 0 0 0 0 0 0
0 0 0 0 0 0 0 0 0 0 0 0 0 0 0 0 0 0 0 0 0 0 0 0 0 0 0 0 0 0 0 0 0 0 0 0 0 0
0 0 0 0 0 0 0 0 0 0 0 0 0 0 0 0 0 0 0 0 0 0 0 0 0 0 0 0 0 0 0 0 0 0 0 0 0 0
0 0 0 0 0 0 0 0 0 0 0 0 0 0 0 0 0 0 0 0 0 0 0 0 0 0 0 0 0 0 0 0 0 0 0 0 0 0
0 0 0 0 0 0 0 0 0 0 0 0 0 0 0 0 0 0 0 0 0 0 0 0 0 0 0 0 0 0 0 0 0 0 0 0 0 0
0 0 0 0 0 0 0 0 0 0 0 0 0 0 0 0 0 0 0 0 0 0 0 0 0 0 0 0 0 0 0 0 0 0 0 0 0 0
0 0 0 0 0 0 0 0 0 0 0 0 0 0 0 0 0 0 0 0 0 0 0 0 0 0 0 0 0 0 0 0 0 0 0 0 0 0
0 0 0 0 0 0 0 0 0 0 0 0 0 0 0 0 0 0 0 0 0 0 0 0 0 0 0 0 0 0 0 0 0 0 0 0 0 0
0 0 0 0 0 0 0 0 0 0 0 0 0 0 0 0 0 0 0 0 0 0 0 0 0 0 0 0 0 0 0 0 0 0 0 0 0 0
0 0 0 0 0 0 0 0 0 0 0 0 0 0 0 0 0 0 0 0 0 0 0 0 0 0 0 0 0 0 0 0 0 0 0 0 0 0
0 0 0 0 0 0 0 0 0 0 0 0 0 0 0 0 0 0 0 0 0 0 0 0 0 0 0 0 0 0 0 0 0 0 0 0 0 0
0 0 0 0 0 0 0 0 0 0 0 0 0 0 0 0 0 0 0 0 0 0 0 0 0 0 0 0 0 0 0 0 0 0 0 0 0 0
0 0 0 0 0 0 0 0 0 0 0 0 0 0 0 0 0 0 0 0 0 0 0 0 0 0 0 0 0 0 0 0 0 0 0 0 0 0
Wind_Speed
13 13 11 10 9 9 8 8 7 7 8 9 7 9 8 8 8 10 11 13 15 15 14 13 13 12 12 11 10 9 8 7 7 8 8 9 10 10
10 12 12 9 9 8 8 8 8 8 7 6 6 6 8 7 9 11 10 11 14 15 14 14 13 13 12 11 11 10 9 8 8 8 9 10 10 10
12 13 14 12 9 8 8 8 8 7 8 5 5 5 8 9 8 9 8 9 9 14 14 14 13 13 12 12 11 11 10 10 9 9 9 10 10 10
13 13 13 10 12 9 8 9 8 9 8 8 6 6 8 9 9 9 7 7 7 10 13 14 13 13 12 12 11 11 10 10 9 9 9 10 10 10
12 13 13 12 13 10 10 9 8 7 7 7 6 5 5 5 7 7 8 6 6 7 10 12 13 13 13 12 12 11 10 10 9 9 9 9 9 10
12 12 13 13 13 12 10 11 9 8 7 7 6 6 5 6 6 6 6 6 6 6 7 8 10 12 13 13 12 11 10 10 10 9 9 8 8 9
12 12 12 13 13 11 9 9 9 8 7 7 7 6 6 6 7 6 6 5 6 5 5 6 6 7 8 11 12 11 11 10 10 9 9 8 8 8
12 11 11 13 14 14 13 13 12 11 9 8 7 8 9 9 7 7 6 5 5 5 5 5 5 6 6 6 8 11 11 10 10 9 9 8 8 8
11 10 9 9 12 12 12 12 12 13 13 10 10 11 10 9 9 9 8 7 5 4 5 5 5 6 5 5 9 11 11 10 9 9 8 8 8 8
11 11 11 11 11 11 9 10 10 10 10 9 10 10 8 8 9 9 8 5 2 3 5 4 4 4 3 4 8 10 10 10 9 8 8 7 7 8
10 10 11 11 12 12 10 9 9 8 7 8 8 8 9 10 9 6 6 5 4 4 4 3 3 2 3 4 5 9 10 9 9 8 7 7 6 6
7 9 11 12 13 14 11 10 10 8 6 5 5 5 7 9 11 9 8 7 4 4 5 4 3 2 2 2 3 4 5 7 8 7 7 6 5 4
6 6 7 12 14 15 12 10 10 7 6 6 5 5 5 5 6 5 5 6 5 4 5 5 3 3 2 1 2 2 3 3 3 4 6 6 6 4
7 6 6 10 12 13 10 9 9 7 5 5 5 5 5 5 4 4 4 3 2 3 7 6 4 4 3 2 2 1 2 2 2 2 2 4 5 6
5 6 6 9 10 9 10 10 9 6 5 6 6 5 4 5 4 4 3 3 3 3 3 3 3 4 3 3 2 2 1 2 2 2 2 3 3 2
4 4 6 8 7 7 8 8 6 6 6 6 5 4 4 4 4 4 4 4 3 2 2 2 2 3 2 2 2 2 2 2 3 2 2 2 2 2
4 2 3 4 5 4 4 5 5 5 5 5 5 5 5 5 4 4 4 4 3 4 3 2 3 4 3 2 2 2 2 1 2 2 1 1 1 1
4 3 4 4 5 5 5 4 5 5 5 5 5 6 6 6 5 4 4 4 5 4 4 4 4 3 2 2 1 2 2 1 1 1 1 1 1 1
4 4 4 5 5 5 5 5 5 5 4 5 6 6 6 6 6 5 5 5 4 4 4 4 4 4 3 2 1 1 2 1 1 1 1 1 1 1
4 4 4 4 5 5 5 5 4 4 5 5 5 6 6 6 6 6 6 6 5 5 4 4 3 3 3 3 2 1 2 2 2 2 1 1 1 1
3 3 3 4 4 4 4 4 5 5 5 5 6 6 6 6 6 6 6 8 6 5 5 4 3 4 4 4 3 2 2 2 1 1 2 1 1 1
3 3 3 3 4 4 4 5 4 5 6 5 6 6 6 6 6 7 6 6 5 5 5 4 5 4 2 3 4 3 3 3 4 4 3 1 1 1
3 3 3 3 4 3 4 5 6 5 5 6 6 6 6 6 6 6 6 6 6 6 6 6 4 3 3 3 4 4 4 3 3 2 2 2 2 1
Wind_Direction
220 220 221 222 220 219 218 216 219 231 233 226 219 212 212 215 206 213 220 210 212 216 218 220 222 226 229 232 236 241 244 249 254 261 268 275 282 289
221 220 222 222 220 218 218 221 223 230 239 230 226 212 204 211 208 218 219 207 210 213 216 218 220 222 224 227 231 235 239 243 249 257 264 271 278 284
223 222 222 221 218 216 216 217 221 223 233 236 232 219 212 214 209 216 216 215 212 210 213 216 217 218 219 222 226 231 236 242 246 253 262 268 275 280
223 223 222 217 220 218 215 216 220 221 222 227 222 219 220 218 214 211 212 217 219 208 210 214 216 215 216 220 223 227 234 239 243 251 258 265 272 277
225 223 222 216 218 219 216 216 219 221 219 219 218 213 214 213 214 214 214 215 218 211 210 214 215 216 215 218 221 226 231 235 240 247 255 262 269 274
230 227 223 219 218 217 217 217 214 214 212 212 214 210 202 201 204 208 210 212 214 210 213 214 213 213 215 218 221 224 227 232 238 245 251 259 267 272
232 228 225 220 216 215 216 215 212 210 209 210 211 209 202 193 204 201 211 208 212 204 211 210 208 213 214 219 221 221 223 229 236 241 246 253 261 268
234 228 224 217 213 210 214 214 212 210 211 212 216 213 211 206 201 199 197 201 216 197 205 213 205 214 216 218 214 214 220 227 233 237 244 251 257 264
235 226 221 218 213 214 213 213 217 217 213 217 218 217 211 203 196 200 203 207 215 178 190 214 206 221 214 215 210 213 218 223 229 235 243 249 256 263
233 224 220 217 214 209 210 217 224 224 221 223 227 222 212 200 199 202 198 199 200 182 193 213 207 221 213 217 207 211 215 219 225 232 237 246 257 263
233 227 221 219 208 197 202 210 220 226 226 228 232 219 202 194 189 180 179 180 196 198 200 210 201 215 222 224 211 209 214 219 224 229 234 243 254 262
237 231 220 216 204 195 204 205 212 216 210 219 220 206 201 192 189 194 189 189 185 194 189 191 181 171 211 221 219 213 216 218 220 225 230 237 247 257
239 233 225 206 199 199 208 212 210 207 206 207 206 202 199 197 200 203 200 193 189 194 175 177 176 181 183 193 221 223 221 217 212 216 220 230 240 245
241 235 224 201 201 203 209 210 196 192 196 195 198 197 195 197 193 187 184 185 189 185 172 173 173 177 168 184 211 209 227 215 210 221 229 227 234 241
254 239 224 205 205 206 203 194 189 192 190 195 200 204 197 185 167 153 138 118 84 83 146 172 169 168 172 176 174 177 195 223 213 220 230 231 233 234
260 224 203 197 202 207 198 196 200 196 192 198 199 189 173 165 166 163 160 149 130 106 65 84 143 153 160 160 165 185 193 200 210 225 234 243 235 230
277 251 215 200 202 201 201 204 200 190 193 190 183 174 171 168 169 167 160 157 161 161 149 105 86 77 70 130 158 175 180 201 205 201 212 240 237 216
266 230 215 207 205 200 199 200 199 198 196 187 180 179 178 176 171 166 164 163 163 162 157 148 137 121 100 47 66 173 170 179 177 180 181 201 227 191
247 234 222 209 207 202 199 201 205 198 192 186 181 181 177 173 169 169 168 163 161 157 154 159 166 158 155 163 141 203 175 159 156 168 178 203 229 228
235 231 229 214 206 202 199 201 199 194 189 183 182 179 176 173 171 172 173 170 163 153 151 157 172 172 166 154 142 150 176 171 164 157 133 65 45 70
242 239 236 220 209 202 198 200 198 196 188 181 179 177 175 172 172 172 168 164 160 158 163 168 155 130 106 107 110 112 99 88 99 143 142 122 98 106
246 241 242 230 214 203 198 197 197 190 183 182 178 176 175 172 169 168 167 165 164 155 143 127 129 132 127 135 135 130 116 93 81 86 88 89 146 184
253 249 248 239 219 206 203 200 196 187 182 181 178 174 171 168 166 162 160 156 149 143 135 134 131 115 112 126 128 123 120 116 105 91 84 80 68 35